UAL2658 KIAH-KLAX

Flight info

Callsign UAL2658
Flight time 3h 5m
Altitude 30000
Route PITZZ5 CRGER EWM J4 SSO/N0473F320 J4 WLVRN ESTWD HLYWD1
Aircraft B739/M-SDE2E3FGHIRWXY/LB1

Departure

Time 2026-04-22 21:52
Airport George Bush Intercontinental Airport (KIAH)

Arrival

Time 2026-04-23 00:58
Airport Los Angeles International Airport (KLAX)
Time Latitude Longitude Altitude Speed Heading
2026-04-22 21:22 29.98524 -95.33664 105 ft 0 kts
2026-04-22 21:41 29.98521 -95.33664 105 ft 2 kts 360°
2026-04-22 21:41 29.98503 -95.33663 105 ft 3 kts 354°
2026-04-22 21:41 29.98483 -95.33660 105 ft 3 kts 345°
2026-04-22 21:41 29.98464 -95.33652 105 ft 3 kts 326°
2026-04-22 21:42 29.98453 -95.33640 105 ft 3 kts 281°
2026-04-22 21:42 29.98453 -95.33632 105 ft 0 kts 226°
2026-04-22 21:44 29.98452 -95.33632 105 ft 0 kts 226°
2026-04-22 21:44 29.98434 -95.33651 105 ft 9 kts 212°
2026-04-22 21:44 29.98350 -95.33664 105 ft 14 kts 184°
2026-04-22 21:45 29.98275 -95.33668 105 ft 6 kts 185°
2026-04-22 21:45 29.98242 -95.33691 105 ft 7 kts 248°
2026-04-22 21:45 29.98238 -95.33736 105 ft 10 kts 271°
2026-04-22 21:45 29.98238 -95.33886 105 ft 19 kts 269°
2026-04-22 21:46 29.98236 -95.34040 105 ft 19 kts 270°
2026-04-22 21:46 29.98236 -95.34188 105 ft 18 kts 270°
2026-04-22 21:46 29.98237 -95.34284 105 ft 17 kts 270°
2026-04-22 21:46 29.98236 -95.34419 105 ft 16 kts 270°
2026-04-22 21:47 29.98236 -95.34587 105 ft 15 kts 269°
2026-04-22 21:47 29.98235 -95.34667 105 ft 15 kts 269°
2026-04-22 21:47 29.98235 -95.34780 105 ft 14 kts 271°
2026-04-22 21:47 29.98236 -95.34885 105 ft 13 kts 270°
2026-04-22 21:48 29.98237 -95.34986 105 ft 12 kts 270°
2026-04-22 21:48 29.98237 -95.35084 105 ft 12 kts 271°
2026-04-22 21:48 29.98287 -95.35148 105 ft 11 kts 332°
2026-04-22 21:48 29.98361 -95.35194 105 ft 13 kts 332°
2026-04-22 21:49 29.98449 -95.35248 105 ft 15 kts 332°
2026-04-22 21:49 29.98548 -95.35308 105 ft 16 kts 333°
2026-04-22 21:49 29.98644 -95.35366 105 ft 15 kts 332°
2026-04-22 21:49 29.98736 -95.35422 105 ft 14 kts 332°
2026-04-22 21:50 29.98822 -95.35475 105 ft 14 kts 332°
2026-04-22 21:50 29.98879 -95.35520 105 ft 9 kts 299°
2026-04-22 21:50 29.98863 -95.35585 105 ft 9 kts 243°
2026-04-22 21:50 29.98831 -95.35655 105 ft 11 kts 242°
2026-04-22 21:51 29.98791 -95.35739 105 ft 12 kts 236°
2026-04-22 21:51 29.98718 -95.35743 105 ft 12 kts 152°
2026-04-22 21:51 29.98594 -95.35667 105 ft 42 kts 152°
2026-04-22 21:52 29.97414 -95.34945 106 ft 145 kts 153°
2026-04-22 21:52 29.96458 -95.34364 507 ft 154 kts 152°
2026-04-22 21:52 29.95453 -95.33848 1002 ft 168 kts 167°
2026-04-22 21:52 29.94230 -95.34009 1342 ft 188 kts 204°
2026-04-22 21:53 29.93245 -95.35042 1831 ft 201 kts 234°
2026-04-22 21:53 29.92574 -95.36474 2515 ft 202 kts 239°
2026-04-22 21:53 29.91872 -95.37854 3301 ft 198 kts 234°
2026-04-22 21:53 29.91023 -95.39181 3789 ft 212 kts 231°
2026-04-22 21:54 29.90110 -95.40506 4475 ft 217 kts 230°
2026-04-22 21:54 29.89155 -95.41851 4657 ft 233 kts 231°
2026-04-22 21:54 29.88206 -95.43360 4760 ft 248 kts 238°
2026-04-22 21:54 29.87448 -95.44953 5201 ft 260 kts 242°
2026-04-22 21:55 29.86590 -95.46761 6213 ft 257 kts 241°
2026-04-22 21:55 29.85722 -95.48585 6968 ft 262 kts 242°
2026-04-22 21:55 29.84836 -95.50437 7747 ft 266 kts 241°
2026-04-22 21:55 29.83924 -95.52308 8514 ft 269 kts 242°
2026-04-22 21:56 29.83288 -95.53700 9054 ft 271 kts 248°
2026-04-22 21:56 29.82935 -95.55834 9762 ft 274 kts 272°
2026-04-22 21:56 29.83342 -95.57986 10475 ft 279 kts 289°
2026-04-22 21:56 29.84140 -95.60007 11075 ft 287 kts 296°
2026-04-22 21:57 29.85137 -95.62076 11495 ft 302 kts 299°
2026-04-22 21:57 29.86237 -95.64211 11813 ft 318 kts 299°
2026-04-22 21:57 29.87387 -95.66464 12094 ft 335 kts 299°
2026-04-22 21:57 29.88586 -95.68842 12341 ft 351 kts 299°
2026-04-22 21:58 29.89812 -95.71337 12557 ft 366 kts 297°
2026-04-22 21:58 29.90889 -95.74060 12771 ft 380 kts 290°
2026-04-22 21:58 29.91683 -95.77000 13115 ft 388 kts 285°
2026-04-22 21:58 29.92363 -95.80029 13606 ft 392 kts 284°
2026-04-22 21:59 29.93018 -95.83085 14116 ft 395 kts 284°
2026-04-22 21:59 29.93671 -95.86170 14623 ft 397 kts 284°
2026-04-22 21:59 29.94328 -95.89280 15125 ft 400 kts 284°
2026-04-22 21:59 29.94986 -95.92400 15618 ft 402 kts 284°
2026-04-22 22:00 29.95647 -95.95539 16091 ft 404 kts 284°
2026-04-22 22:00 29.96311 -95.98695 16551 ft 406 kts 284°
2026-04-22 22:00 29.96977 -96.01867 16992 ft 408 kts 284°
2026-04-22 22:00 29.97645 -96.05049 17418 ft 410 kts 284°
2026-04-22 22:01 29.98317 -96.08257 17831 ft 412 kts 284°
2026-04-22 22:01 29.98990 -96.11476 18222 ft 414 kts 284°
2026-04-22 22:01 29.99666 -96.14711 18610 ft 416 kts 284°
2026-04-22 22:01 30.00365 -96.17957 18985 ft 418 kts 284°
2026-04-22 22:02 30.01064 -96.21216 19346 ft 419 kts 284°
2026-04-22 22:02 30.01760 -96.24484 19707 ft 421 kts 284°
2026-04-22 22:02 30.02457 -96.27773 20044 ft 423 kts 284°
2026-04-22 22:02 30.03153 -96.31078 20377 ft 425 kts 284°
2026-04-22 22:03 30.03849 -96.34396 20694 ft 426 kts 284°
2026-04-22 22:03 30.04548 -96.37730 21011 ft 428 kts 284°
2026-04-22 22:03 30.05246 -96.41073 21324 ft 429 kts 284°
2026-04-22 22:03 30.05945 -96.44424 21628 ft 431 kts 284°
2026-04-22 22:04 30.06645 -96.47793 21913 ft 432 kts 284°
2026-04-22 22:04 30.07348 -96.51171 22206 ft 434 kts 284°
2026-04-22 22:04 30.08052 -96.54563 22494 ft 435 kts 284°
2026-04-22 22:04 30.08755 -96.57961 22772 ft 436 kts 284°
2026-04-22 22:05 30.09462 -96.61372 23033 ft 437 kts 284°
2026-04-22 22:05 30.10168 -96.64790 23290 ft 438 kts 284°
2026-04-22 22:05 30.10875 -96.68215 23539 ft 439 kts 284°
2026-04-22 22:05 30.11583 -96.71649 23790 ft 440 kts 284°
2026-04-22 22:06 30.12293 -96.75098 24024 ft 441 kts 284°
2026-04-22 22:06 30.13003 -96.78554 24251 ft 443 kts 284°
2026-04-22 22:06 30.13703 -96.81973 24436 ft 444 kts 284°
2026-04-22 22:06 30.14416 -96.85451 24635 ft 446 kts 284°
2026-04-22 22:07 30.15130 -96.88937 24843 ft 447 kts 284°
2026-04-22 22:07 30.15846 -96.92438 25028 ft 448 kts 284°
2026-04-22 22:07 30.16561 -96.95942 25256 ft 448 kts 284°
2026-04-22 22:07 30.17274 -96.99443 25546 ft 447 kts 284°
2026-04-22 22:08 30.17984 -97.02934 25806 ft 446 kts 284°
2026-04-22 22:08 30.18695 -97.06430 26062 ft 446 kts 284°
2026-04-22 22:08 30.19402 -97.09914 26337 ft 445 kts 284°
2026-04-22 22:08 30.20107 -97.13393 26602 ft 444 kts 284°
2026-04-22 22:09 30.20809 -97.16863 26851 ft 444 kts 284°
2026-04-22 22:09 30.21511 -97.20337 27102 ft 443 kts 284°
2026-04-22 22:09 30.22209 -97.23799 27366 ft 442 kts 284°
2026-04-22 22:09 30.22907 -97.27261 27616 ft 442 kts 284°
2026-04-22 22:10 30.23480 -97.30107 27816 ft 441 kts 284°
2026-04-22 22:10 30.24064 -97.33015 28042 ft 440 kts 284°
2026-04-22 22:10 30.24759 -97.36464 28287 ft 440 kts 285°
2026-04-22 22:10 30.25467 -97.39902 28521 ft 439 kts 285°
2026-04-22 22:11 30.26161 -97.43336 28758 ft 439 kts 284°
2026-04-22 22:11 30.26848 -97.46772 29007 ft 438 kts 284°
2026-04-22 22:11 30.27530 -97.50201 29246 ft 437 kts 284°
2026-04-22 22:11 30.28193 -97.53540 29483 ft 437 kts 284°
2026-04-22 22:12 30.28828 -97.56747 29701 ft 436 kts 284°
2026-04-22 22:12 30.29504 -97.60166 29933 ft 435 kts 284°
2026-04-22 22:12 30.30163 -97.63497 29994 ft 438 kts 284°
2026-04-22 22:13 30.31526 -97.70369 29996 ft 438 kts 284°
2026-04-22 22:13 30.32926 -97.77216 29998 ft 436 kts 285°
2026-04-22 22:14 30.34374 -97.84034 29999 ft 436 kts 285°
2026-04-22 22:14 30.35811 -97.90863 29998 ft 437 kts 285°
2026-04-22 22:15 30.37243 -97.97697 29999 ft 437 kts 285°
2026-04-22 22:15 30.38716 -98.04511 30011 ft 436 kts 285°
2026-04-22 22:16 30.40146 -98.11330 30012 ft 436 kts 285°
2026-04-22 22:16 30.41562 -98.18155 30016 ft 436 kts 285°
2026-04-22 22:17 30.42974 -98.24983 30033 ft 435 kts 285°
2026-04-22 22:17 30.44384 -98.31800 30042 ft 435 kts 285°
2026-04-22 22:18 30.45841 -98.38606 30038 ft 435 kts 286°
2026-04-22 22:18 30.47344 -98.45346 30040 ft 435 kts 286°
2026-04-22 22:19 30.48858 -98.52190 30042 ft 435 kts 286°
2026-04-22 22:19 30.50342 -98.58939 30042 ft 435 kts 286°
2026-04-22 22:20 30.51832 -98.65743 30042 ft 435 kts 285°
2026-04-22 22:20 30.53319 -98.72554 30039 ft 436 kts 285°
2026-04-22 22:21 30.54847 -98.79362 30038 ft 436 kts 286°
2026-04-22 22:21 30.56361 -98.86181 30037 ft 437 kts 286°
2026-04-22 22:22 30.57861 -98.93000 30035 ft 437 kts 285°
2026-04-22 22:22 30.59354 -98.99828 30033 ft 436 kts 285°
2026-04-22 22:23 30.60841 -99.06657 30032 ft 437 kts 285°
2026-04-22 22:23 30.62326 -99.13497 30031 ft 437 kts 285°
2026-04-22 22:24 30.63806 -99.20341 30028 ft 437 kts 285°
2026-04-22 22:24 30.65283 -99.27182 30025 ft 437 kts 285°
2026-04-22 22:25 30.66748 -99.33992 30010 ft 437 kts 285°
2026-04-22 22:25 30.68218 -99.40838 30003 ft 437 kts 285°
2026-04-22 22:26 30.69683 -99.47686 29999 ft 436 kts 285°
2026-04-22 22:26 30.71143 -99.54533 29999 ft 437 kts 285°
2026-04-22 22:27 30.72603 -99.61393 30000 ft 437 kts 285°
2026-04-22 22:27 30.74060 -99.68255 29995 ft 437 kts 285°
2026-04-22 22:28 30.75511 -99.75113 29995 ft 437 kts 285°
2026-04-22 22:28 30.76958 -99.81972 29993 ft 437 kts 285°
2026-04-22 22:29 30.78403 -99.88839 29988 ft 439 kts 285°
2026-04-22 22:29 30.79850 -99.95736 29988 ft 439 kts 285°
2026-04-22 22:30 30.81293 -100.02631 29989 ft 438 kts 285°
2026-04-22 22:30 30.82729 -100.09514 29986 ft 438 kts 285°
2026-04-22 22:31 30.84168 -100.16429 29982 ft 440 kts 285°
2026-04-22 22:31 30.85605 -100.23353 29985 ft 440 kts 285°
2026-04-22 22:32 30.87023 -100.30211 29986 ft 439 kts 285°
2026-04-22 22:32 30.88448 -100.37116 29979 ft 440 kts 284°
2026-04-22 22:33 30.89874 -100.44049 29978 ft 440 kts 284°
2026-04-22 22:33 30.91295 -100.50976 29979 ft 439 kts 284°
2026-04-22 22:34 30.92709 -100.57892 29975 ft 439 kts 284°
2026-04-22 22:34 30.94125 -100.64832 29970 ft 441 kts 284°
2026-04-22 22:35 30.95538 -100.71780 29968 ft 441 kts 284°
2026-04-22 22:35 30.96945 -100.78723 29968 ft 440 kts 284°
2026-04-22 22:36 30.98112 -100.84497 29967 ft 440 kts 284°
2026-04-22 22:36 30.99514 -100.91448 29967 ft 441 kts 284°
2026-04-22 22:37 31.00911 -100.98399 29968 ft 440 kts 283°
2026-04-22 22:37 31.02304 -101.05346 29966 ft 440 kts 283°
2026-04-22 22:38 31.03693 -101.12300 29967 ft 440 kts 283°
2026-04-22 22:38 31.05080 -101.19257 29969 ft 440 kts 283°
2026-04-22 22:39 31.06461 -101.26210 29967 ft 440 kts 283°
2026-04-22 22:39 31.07840 -101.33170 29960 ft 441 kts 283°
2026-04-22 22:40 31.09216 -101.40139 29953 ft 441 kts 283°
2026-04-22 22:40 31.10586 -101.47096 29953 ft 440 kts 283°
2026-04-22 22:41 31.11952 -101.54055 29946 ft 440 kts 283°
2026-04-22 22:41 31.13312 -101.61009 29942 ft 439 kts 283°
2026-04-22 22:42 31.14670 -101.67968 29943 ft 440 kts 283°
2026-04-22 22:42 31.16015 -101.74882 29938 ft 439 kts 283°
2026-04-22 22:43 31.17363 -101.81830 29935 ft 439 kts 283°
2026-04-22 22:43 31.18706 -101.88778 29935 ft 439 kts 283°
2026-04-22 22:44 31.20045 -101.95729 29935 ft 439 kts 283°
2026-04-22 22:44 31.21381 -102.02681 29935 ft 439 kts 283°
2026-04-22 22:45 31.22713 -102.09635 29935 ft 439 kts 283°
2026-04-22 22:45 31.24041 -102.16590 29935 ft 439 kts 283°
2026-04-22 22:46 31.25367 -102.23551 29935 ft 438 kts 283°
2026-04-22 22:46 31.26685 -102.30499 29935 ft 438 kts 283°
2026-04-22 22:47 31.27999 -102.37446 29935 ft 438 kts 283°
2026-04-22 22:47 31.29310 -102.44395 29934 ft 438 kts 283°
2026-04-22 22:48 31.30616 -102.51343 29932 ft 438 kts 283°
2026-04-22 22:48 31.31920 -102.58302 29932 ft 438 kts 283°
2026-04-22 22:49 31.33219 -102.65254 29930 ft 437 kts 283°
2026-04-22 22:49 31.34513 -102.72200 29920 ft 437 kts 283°
2026-04-22 22:50 31.35804 -102.79155 29919 ft 437 kts 283°
2026-04-22 22:50 31.37090 -102.86107 29918 ft 437 kts 283°
2026-04-22 22:51 31.38374 -102.93062 29915 ft 437 kts 283°
2026-04-22 22:51 31.39654 -103.00023 29914 ft 437 kts 283°
2026-04-22 22:52 31.40929 -103.06981 29916 ft 437 kts 283°
2026-04-22 22:52 31.42201 -103.13943 29914 ft 437 kts 283°
2026-04-22 22:53 31.43470 -103.20912 29909 ft 438 kts 283°
2026-04-22 22:53 31.44734 -103.27878 29910 ft 437 kts 283°
2026-04-22 22:54 31.45996 -103.34854 29910 ft 438 kts 283°
2026-04-22 22:54 31.47253 -103.41824 29907 ft 438 kts 283°
2026-04-22 22:55 31.48499 -103.48754 29901 ft 438 kts 283°
2026-04-22 22:55 31.50372 -103.59219 29902 ft 438 kts 282°
2026-04-22 22:56 31.51616 -103.66196 29901 ft 437 kts 282°
2026-04-22 22:56 31.52855 -103.73168 29902 ft 437 kts 282°
2026-04-22 22:57 31.54091 -103.80146 29902 ft 437 kts 282°
2026-04-22 22:57 31.55323 -103.87131 29905 ft 437 kts 282°
2026-04-22 22:58 31.56550 -103.94103 29904 ft 437 kts 282°
2026-04-22 22:58 31.57773 -104.01081 29903 ft 437 kts 282°
2026-04-22 22:59 31.58994 -104.08064 29907 ft 437 kts 282°
2026-04-22 22:59 31.60203 -104.15008 29917 ft 434 kts 282°
2026-04-22 23:00 31.61408 -104.21952 29919 ft 434 kts 282°
2026-04-22 23:00 31.62609 -104.28897 29918 ft 435 kts 282°
2026-04-22 23:01 31.63808 -104.35848 29927 ft 433 kts 282°
2026-04-22 23:01 31.64997 -104.42771 29931 ft 432 kts 282°
2026-04-22 23:02 31.66182 -104.49691 29931 ft 433 kts 282°
2026-04-22 23:02 31.67363 -104.56615 29934 ft 433 kts 282°
2026-04-22 23:03 31.68535 -104.63502 29934 ft 433 kts 282°
2026-04-22 23:03 31.69708 -104.70424 29934 ft 433 kts 282°
2026-04-22 23:04 31.70880 -104.77365 29934 ft 433 kts 282°
2026-04-22 23:04 31.72046 -104.84295 29935 ft 433 kts 282°
2026-04-22 23:05 31.73209 -104.91229 29935 ft 433 kts 282°
2026-04-22 23:05 31.74368 -104.98159 29934 ft 433 kts 282°
2026-04-22 23:06 31.75524 -105.05102 29937 ft 433 kts 282°
2026-04-22 23:06 31.76674 -105.12033 29938 ft 433 kts 282°
2026-04-22 23:07 31.77823 -105.18979 29938 ft 433 kts 282°
2026-04-22 23:07 31.78968 -105.25922 29942 ft 433 kts 282°
2026-04-22 23:08 31.80101 -105.32821 29952 ft 433 kts 282°
2026-04-22 23:08 31.81245 -105.39818 29956 ft 433 kts 282°
2026-04-22 23:09 31.82372 -105.46724 29961 ft 433 kts 281°
2026-04-22 23:09 31.83503 -105.53685 29974 ft 433 kts 281°
2026-04-22 23:10 31.84630 -105.60651 29978 ft 434 kts 281°
2026-04-22 23:10 31.85754 -105.67615 29982 ft 433 kts 281°
2026-04-22 23:11 31.86873 -105.74579 29995 ft 433 kts 281°
2026-04-22 23:11 31.87988 -105.81543 30006 ft 433 kts 281°
2026-04-22 23:12 31.89101 -105.88518 30055 ft 435 kts 281°
2026-04-22 23:12 31.89672 -105.92009 30253 ft 434 kts 282°
2026-04-22 23:12 31.90236 -105.95489 30510 ft 431 kts 281°
2026-04-22 23:13 31.90787 -105.98946 30727 ft 430 kts 281°
2026-04-22 23:13 31.91333 -106.02411 30881 ft 430 kts 281°
2026-04-22 23:13 31.91871 -106.05840 31066 ft 430 kts 281°
2026-04-22 23:13 31.92411 -106.09298 31234 ft 429 kts 281°
2026-04-22 23:14 31.92949 -106.12748 31413 ft 429 kts 281°
2026-04-22 23:14 31.93487 -106.16201 31585 ft 428 kts 281°
2026-04-22 23:14 31.94025 -106.19652 31771 ft 428 kts 281°
2026-04-22 23:14 31.94561 -106.23090 31942 ft 427 kts 281°
2026-04-22 23:15 31.95601 -106.29992 31992 ft 428 kts 279°
2026-04-22 23:15 31.96363 -106.36665 32000 ft 428 kts 278°
2026-04-22 23:16 31.97132 -106.43606 31997 ft 428 kts 278°
2026-04-22 23:16 31.97909 -106.50506 31994 ft 428 kts 278°
2026-04-22 23:17 31.98694 -106.57454 31998 ft 428 kts 278°
2026-04-22 23:17 31.99478 -106.64400 31999 ft 427 kts 278°
2026-04-22 23:18 32.00286 -106.71310 32009 ft 424 kts 279°
2026-04-22 23:18 32.01098 -106.78202 32009 ft 427 kts 278°
2026-04-22 23:19 32.01898 -106.85149 32006 ft 428 kts 278°
2026-04-22 23:19 32.02687 -106.92080 32014 ft 426 kts 278°
2026-04-22 23:20 32.03468 -106.98994 32018 ft 425 kts 278°
2026-04-22 23:20 32.04243 -107.05910 32014 ft 427 kts 278°
2026-04-22 23:21 32.05016 -107.12845 32019 ft 426 kts 278°
2026-04-22 23:21 32.05783 -107.19754 32026 ft 425 kts 278°
2026-04-22 23:22 32.06546 -107.26677 32026 ft 426 kts 278°
2026-04-22 23:22 32.07305 -107.33592 32028 ft 426 kts 278°
2026-04-22 23:23 32.08060 -107.40502 32039 ft 425 kts 278°
2026-04-22 23:23 32.08807 -107.47375 32038 ft 425 kts 278°
2026-04-22 23:24 32.09553 -107.54286 32037 ft 425 kts 278°
2026-04-22 23:24 32.10297 -107.61205 32041 ft 425 kts 278°
2026-04-22 23:25 32.11036 -107.68107 32029 ft 424 kts 278°
2026-04-22 23:25 32.11771 -107.75019 32029 ft 424 kts 278°
2026-04-22 23:26 32.12383 -107.80803 32029 ft 424 kts 278°
2026-04-22 23:26 32.13111 -107.87712 32034 ft 424 kts 278°
2026-04-22 23:27 32.13836 -107.94624 32036 ft 424 kts 278°
2026-04-22 23:27 32.14551 -108.01488 32036 ft 424 kts 278°
2026-04-22 23:28 32.15268 -108.08399 32043 ft 424 kts 278°
2026-04-22 23:28 32.15981 -108.15310 32053 ft 424 kts 278°
2026-04-22 23:29 32.16690 -108.22226 32050 ft 424 kts 278°
2026-04-22 23:29 32.17395 -108.29133 32061 ft 424 kts 278°
2026-04-22 23:30 32.18096 -108.36046 32071 ft 424 kts 278°
2026-04-22 23:30 32.18794 -108.42963 32070 ft 424 kts 278°
2026-04-22 23:31 32.19489 -108.49882 32069 ft 424 kts 278°
2026-04-22 23:31 32.20178 -108.56788 32062 ft 424 kts 277°
2026-04-22 23:32 32.20863 -108.63699 32060 ft 424 kts 277°
2026-04-22 23:32 32.21545 -108.70611 32059 ft 424 kts 277°
2026-04-22 23:33 32.22224 -108.77530 32047 ft 423 kts 277°
2026-04-22 23:33 32.22897 -108.84424 32031 ft 422 kts 277°
2026-04-22 23:34 32.23585 -108.91322 32033 ft 423 kts 278°
2026-04-22 23:34 32.24261 -108.98225 32029 ft 423 kts 277°
2026-04-22 23:35 32.24916 -109.05128 32010 ft 422 kts 277°
2026-04-22 23:35 32.25564 -109.12025 32003 ft 422 kts 277°
2026-04-22 23:36 32.26206 -109.18879 32008 ft 423 kts 277°
2026-04-22 23:36 32.27132 -109.25734 32001 ft 422 kts 284°
2026-04-22 23:37 32.29031 -109.32303 31992 ft 423 kts 291°
2026-04-22 23:37 32.31254 -109.38737 31996 ft 423 kts 291°
2026-04-22 23:38 32.33490 -109.45186 31998 ft 423 kts 291°
2026-04-22 23:38 32.35721 -109.51618 31983 ft 422 kts 291°
2026-04-22 23:39 32.37940 -109.58044 31975 ft 422 kts 291°
2026-04-22 23:39 32.40164 -109.64479 31976 ft 422 kts 291°
2026-04-22 23:40 32.42413 -109.70767 31974 ft 407 kts 289°
2026-04-22 23:40 32.44536 -109.76896 31968 ft 399 kts 288°
2026-04-22 23:41 32.46625 -109.82954 31970 ft 398 kts 288°
2026-04-22 23:41 32.48717 -109.89026 31972 ft 398 kts 288°
2026-04-22 23:42 32.50810 -109.95103 31969 ft 399 kts 288°
2026-04-22 23:42 32.52905 -110.01206 31968 ft 400 kts 288°
2026-04-22 23:43 32.54996 -110.07307 31969 ft 399 kts 288°
2026-04-22 23:43 32.57086 -110.13415 31969 ft 400 kts 288°
2026-04-22 23:44 32.59174 -110.19525 31973 ft 400 kts 288°
2026-04-22 23:44 32.61259 -110.25641 31972 ft 400 kts 288°
2026-04-22 23:45 32.63343 -110.31767 31973 ft 401 kts 288°
2026-04-22 23:45 32.65425 -110.37895 31973 ft 401 kts 288°
2026-04-22 23:46 32.67490 -110.43990 31978 ft 401 kts 288°
2026-04-22 23:46 32.69584 -110.50176 31980 ft 401 kts 288°
2026-04-22 23:47 32.71663 -110.56331 31981 ft 402 kts 287°
2026-04-22 23:47 32.73721 -110.62439 31982 ft 402 kts 288°
2026-04-22 23:48 32.75808 -110.68640 31987 ft 403 kts 287°
2026-04-22 23:48 32.77898 -110.74867 31987 ft 403 kts 287°
2026-04-22 23:49 32.79953 -110.81002 31987 ft 402 kts 288°
2026-04-22 23:49 32.82019 -110.87171 31985 ft 402 kts 287°
2026-04-22 23:50 32.84081 -110.93346 31980 ft 402 kts 287°
2026-04-22 23:50 32.86137 -110.99522 31981 ft 402 kts 287°
2026-04-22 23:51 32.88057 -111.05295 31979 ft 402 kts 287°
2026-04-22 23:51 32.90103 -111.11459 31970 ft 399 kts 287°
2026-04-22 23:52 32.92131 -111.17581 31965 ft 398 kts 287°
2026-04-22 23:52 32.94160 -111.23719 31966 ft 399 kts 287°
2026-04-22 23:53 32.96188 -111.29865 31966 ft 399 kts 287°
2026-04-22 23:53 32.98213 -111.36011 31965 ft 399 kts 286°
2026-04-22 23:54 33.00234 -111.42159 31965 ft 399 kts 286°
2026-04-22 23:54 33.02250 -111.48305 31965 ft 398 kts 286°
2026-04-22 23:55 33.04266 -111.54459 31964 ft 398 kts 286°
2026-04-22 23:55 33.06238 -111.60495 31964 ft 398 kts 286°
2026-04-22 23:56 33.08245 -111.66647 31964 ft 398 kts 286°
2026-04-22 23:56 33.10206 -111.72672 31964 ft 398 kts 286°
2026-04-22 23:57 33.12208 -111.78834 31964 ft 398 kts 286°
2026-04-22 23:57 33.14204 -111.84987 31962 ft 398 kts 286°
2026-04-22 23:58 33.16195 -111.91141 31962 ft 398 kts 286°
2026-04-22 23:58 33.18187 -111.97307 31964 ft 398 kts 286°
2026-04-22 23:59 33.20173 -112.03468 31964 ft 398 kts 286°
2026-04-22 23:59 33.22127 -112.09541 31955 ft 397 kts 286°
2026-04-23 00:00 33.24754 -112.17727 31948 ft 396 kts 286°
2026-04-23 00:01 33.27009 -112.24770 31949 ft 396 kts 286°
2026-04-23 00:01 33.28971 -112.30910 31952 ft 396 kts 286°
2026-04-23 00:02 33.30931 -112.37058 31952 ft 396 kts 286°
2026-04-23 00:02 33.32574 -112.42220 31953 ft 396 kts 285°
2026-04-23 00:03 33.34865 -112.49364 31952 ft 396 kts 286°
2026-04-23 00:03 33.36828 -112.55525 31950 ft 396 kts 285°
2026-04-23 00:04 33.38757 -112.61644 31949 ft 396 kts 285°
2026-04-23 00:04 33.40705 -112.67845 31947 ft 396 kts 285°
2026-04-23 00:05 33.42626 -112.73969 31950 ft 395 kts 285°
2026-04-23 00:05 33.44561 -112.80135 31962 ft 396 kts 285°
2026-04-23 00:06 33.46562 -112.86272 31964 ft 397 kts 288°
2026-04-23 00:06 33.48780 -112.92327 31964 ft 397 kts 288°
2026-04-23 00:07 33.50977 -112.98397 31964 ft 397 kts 288°
2026-04-23 00:07 33.53155 -113.04477 31964 ft 397 kts 288°
2026-04-23 00:08 33.55322 -113.10555 31964 ft 397 kts 288°
2026-04-23 00:08 33.57487 -113.16647 31964 ft 397 kts 288°
2026-04-23 00:09 33.59664 -113.22726 31964 ft 397 kts 288°
2026-04-23 00:09 33.61836 -113.28767 31964 ft 397 kts 288°
2026-04-23 00:10 33.64004 -113.34855 31964 ft 397 kts 288°
2026-04-23 00:10 33.66163 -113.40946 31964 ft 397 kts 288°
2026-04-23 00:11 33.68334 -113.47032 31964 ft 396 kts 288°
2026-04-23 00:11 33.70491 -113.53111 31964 ft 395 kts 287°
2026-04-23 00:12 33.72630 -113.59203 31966 ft 396 kts 287°
2026-04-23 00:12 33.74762 -113.65297 31965 ft 396 kts 287°
2026-04-23 00:13 33.76887 -113.71381 31964 ft 393 kts 287°
2026-04-23 00:13 33.79004 -113.77440 31965 ft 393 kts 287°
2026-04-23 00:14 33.80758 -113.82491 31964 ft 394 kts 287°
2026-04-23 00:14 33.82832 -113.88581 31964 ft 393 kts 287°
2026-04-23 00:15 33.84885 -113.94674 31964 ft 393 kts 287°
2026-04-23 00:15 33.86921 -114.00733 31964 ft 388 kts 287°
2026-04-23 00:16 33.88943 -114.06756 31964 ft 390 kts 287°
2026-04-23 00:16 33.90701 -114.12905 31965 ft 387 kts 279°
2026-04-23 00:17 33.91829 -114.19204 31964 ft 383 kts 278°
2026-04-23 00:17 33.92888 -114.25482 31964 ft 383 kts 278°
2026-04-23 00:18 33.93944 -114.31772 31964 ft 383 kts 278°
2026-04-23 00:18 33.94997 -114.38056 31964 ft 383 kts 278°
2026-04-23 00:19 33.96047 -114.44343 31964 ft 383 kts 278°
2026-04-23 00:19 33.97095 -114.50632 31964 ft 383 kts 278°
2026-04-23 00:20 33.98175 -114.56918 31964 ft 383 kts 278°
2026-04-23 00:20 33.99239 -114.63206 31964 ft 383 kts 278°
2026-04-23 00:21 34.00318 -114.69492 31964 ft 383 kts 278°
2026-04-23 00:21 34.01364 -114.75792 31964 ft 383 kts 278°
2026-04-23 00:22 34.02391 -114.82057 31964 ft 383 kts 278°
2026-04-23 00:22 34.03418 -114.88353 31964 ft 383 kts 278°
2026-04-23 00:23 34.04443 -114.94650 31964 ft 383 kts 278°
2026-04-23 00:23 34.05471 -115.00958 31964 ft 383 kts 278°
2026-04-23 00:24 34.06495 -115.07259 31965 ft 383 kts 278°
2026-04-23 00:24 34.07517 -115.13584 31964 ft 383 kts 278°
2026-04-23 00:25 34.08532 -115.19895 31964 ft 383 kts 278°
2026-04-23 00:25 34.09540 -115.26179 31964 ft 384 kts 278°
2026-04-23 00:26 34.10572 -115.32494 31964 ft 384 kts 278°
2026-04-23 00:26 34.11621 -115.38808 31964 ft 384 kts 278°
2026-04-23 00:27 34.12640 -115.45178 31964 ft 384 kts 278°
2026-04-23 00:27 34.13632 -115.51454 31964 ft 384 kts 278°
2026-04-23 00:28 34.14629 -115.57788 31964 ft 384 kts 277°
2026-04-23 00:28 34.15623 -115.64115 31964 ft 384 kts 277°
2026-04-23 00:29 34.15988 -115.70502 31964 ft 381 kts 268°
2026-04-23 00:29 34.15639 -115.76885 31964 ft 381 kts 264°
2026-04-23 00:30 34.15022 -115.83251 31964 ft 381 kts 264°
2026-04-23 00:30 34.14398 -115.89602 31964 ft 381 kts 263°
2026-04-23 00:31 34.13774 -115.95950 31964 ft 381 kts 264°
2026-04-23 00:31 34.13163 -116.02299 31964 ft 381 kts 264°
2026-04-23 00:32 34.12547 -116.08653 31964 ft 381 kts 264°
2026-04-23 00:32 34.12430 -116.09843 31964 ft 381 kts 264°
2026-04-23 00:33 34.12170 -116.12456 31964 ft 381 kts 263°
2026-04-23 00:33 34.11534 -116.18808 31796 ft 380 kts 264°
2026-04-23 00:33 34.11219 -116.21953 31546 ft 375 kts 264°
2026-04-23 00:34 34.10908 -116.25048 31297 ft 371 kts 264°
2026-04-23 00:34 34.10598 -116.28141 31046 ft 370 kts 264°
2026-04-23 00:34 34.10288 -116.31223 30797 ft 370 kts 264°
2026-04-23 00:34 34.09969 -116.34308 30546 ft 372 kts 263°
2026-04-23 00:35 34.09639 -116.37420 30297 ft 375 kts 263°
2026-04-23 00:35 34.09303 -116.40544 30047 ft 378 kts 263°
2026-04-23 00:35 34.08960 -116.43718 29796 ft 381 kts 263°
2026-04-23 00:35 34.08615 -116.46887 29546 ft 381 kts 263°
2026-04-23 00:36 34.08274 -116.50028 29295 ft 375 kts 263°
2026-04-23 00:36 34.07941 -116.53083 29046 ft 367 kts 263°
2026-04-23 00:36 34.07613 -116.56105 28794 ft 359 kts 263°
2026-04-23 00:36 34.07292 -116.59058 28543 ft 352 kts 263°
2026-04-23 00:37 34.07014 -116.61960 28291 ft 346 kts 265°
2026-04-23 00:37 34.06766 -116.64837 28040 ft 343 kts 264°
2026-04-23 00:37 34.06509 -116.67692 27790 ft 343 kts 264°
2026-04-23 00:37 34.06244 -116.70555 27442 ft 341 kts 264°
2026-04-23 00:38 34.05980 -116.73372 26917 ft 338 kts 264°
2026-04-23 00:38 34.05715 -116.76180 26347 ft 336 kts 264°
2026-04-23 00:38 34.05452 -116.78960 25825 ft 333 kts 264°
2026-04-23 00:38 34.05190 -116.81726 25299 ft 331 kts 264°
2026-04-23 00:39 34.04930 -116.84466 24778 ft 329 kts 264°
2026-04-23 00:39 34.04671 -116.87199 24264 ft 327 kts 264°
2026-04-23 00:39 34.04407 -116.89911 23785 ft 324 kts 263°
2026-04-23 00:39 34.04070 -116.92597 23332 ft 325 kts 262°
2026-04-23 00:40 34.03695 -116.95301 22878 ft 329 kts 262°
2026-04-23 00:40 34.03348 -116.97906 22442 ft 331 kts 262°
2026-04-23 00:40 34.02989 -117.00645 21985 ft 331 kts 262°
2026-04-23 00:40 34.02638 -117.03317 21539 ft 328 kts 262°
2026-04-23 00:41 34.02322 -117.05948 21101 ft 326 kts 263°
2026-04-23 00:41 34.02014 -117.08636 20653 ft 323 kts 263°
2026-04-23 00:41 34.01701 -117.11309 20208 ft 320 kts 263°
2026-04-23 00:41 34.01386 -117.13959 19767 ft 318 kts 263°
2026-04-23 00:42 34.01072 -117.16581 19331 ft 316 kts 263°
2026-04-23 00:42 34.00759 -117.19192 18897 ft 314 kts 263°
2026-04-23 00:42 34.00487 -117.21464 18518 ft 312 kts 263°
2026-04-23 00:42 34.00179 -117.24047 18088 ft 310 kts 263°
2026-04-23 00:43 33.99893 -117.26426 17692 ft 310 kts 263°
2026-04-23 00:43 33.99603 -117.28842 17289 ft 309 kts 263°
2026-04-23 00:43 33.99295 -117.31411 16861 ft 309 kts 264°
2026-04-23 00:43 33.99001 -117.33968 16436 ft 308 kts 264°
2026-04-23 00:44 33.98704 -117.36513 16013 ft 307 kts 264°
2026-04-23 00:44 33.98401 -117.39076 15582 ft 306 kts 264°
2026-04-23 00:44 33.98099 -117.41624 15058 ft 308 kts 264°
2026-04-23 00:44 33.97847 -117.43745 14693 ft 305 kts 264°
2026-04-23 00:45 33.97549 -117.46259 14267 ft 302 kts 264°
2026-04-23 00:45 33.97347 -117.48475 13895 ft 297 kts 270°
2026-04-23 00:45 33.97547 -117.50928 13515 ft 292 kts 281°
2026-04-23 00:45 33.97980 -117.53304 13140 ft 289 kts 282°
2026-04-23 00:46 33.98425 -117.55604 12780 ft 286 kts 282°
2026-04-23 00:46 33.98853 -117.57934 12418 ft 285 kts 281°
2026-04-23 00:46 33.99270 -117.60263 12058 ft 282 kts 281°
2026-04-23 00:46 33.99677 -117.62561 11700 ft 278 kts 281°
2026-04-23 00:47 34.00076 -117.64822 11350 ft 274 kts 281°
2026-04-23 00:47 34.00411 -117.66724 11053 ft 271 kts 281°
2026-04-23 00:47 34.00640 -117.68955 10711 ft 267 kts 270°
2026-04-23 00:47 34.00524 -117.71169 10469 ft 261 kts 265°
2026-04-23 00:48 34.00345 -117.72896 10303 ft 255 kts 263°
2026-04-23 00:48 34.00131 -117.74520 10048 ft 252 kts 262°
2026-04-23 00:48 33.99824 -117.76662 9665 ft 251 kts 264°
2026-04-23 00:48 33.99608 -117.78746 9298 ft 249 kts 265°
2026-04-23 00:49 33.99437 -117.80825 8924 ft 248 kts 266°
2026-04-23 00:49 33.99281 -117.82892 8557 ft 247 kts 265°
2026-04-23 00:49 33.99084 -117.84944 8191 ft 246 kts 265°
2026-04-23 00:49 33.98876 -117.86991 7827 ft 245 kts 264°
2026-04-23 00:50 33.98670 -117.89023 7466 ft 244 kts 264°
2026-04-23 00:50 33.98545 -117.90254 7257 ft 243 kts 265°
2026-04-23 00:50 33.98352 -117.92271 6894 ft 242 kts 265°
2026-04-23 00:50 33.98223 -117.93599 6690 ft 240 kts 265°
2026-04-23 00:51 33.97978 -117.96088 6321 ft 236 kts 265°
2026-04-23 00:51 33.97785 -117.98041 5985 ft 234 kts 265°
2026-04-23 00:51 33.97609 -117.99986 5642 ft 233 kts 266°
2026-04-23 00:51 33.97437 -118.01849 5447 ft 226 kts 265°
2026-04-23 00:52 33.97261 -118.03688 5347 ft 216 kts 265°
2026-04-23 00:52 33.97086 -118.05459 5128 ft 211 kts 265°
2026-04-23 00:52 33.96911 -118.07206 4892 ft 208 kts 265°
2026-04-23 00:52 33.96735 -118.08942 4776 ft 209 kts 265°
2026-04-23 00:53 33.96556 -118.10698 4547 ft 212 kts 265°
2026-04-23 00:53 33.96379 -118.12441 4297 ft 208 kts 265°
2026-04-23 00:53 33.96223 -118.13971 4042 ft 206 kts 266°
2026-04-23 00:53 33.96045 -118.15707 3760 ft 203 kts 266°
2026-04-23 00:54 33.95873 -118.17390 3489 ft 201 kts 266°
2026-04-23 00:54 33.95703 -118.19053 3223 ft 200 kts 265°
2026-04-23 00:54 33.95533 -118.20721 2958 ft 202 kts 265°
2026-04-23 00:54 33.95361 -118.22402 2690 ft 203 kts 265°
2026-04-23 00:55 33.95188 -118.24091 2421 ft 202 kts 264°
2026-04-23 00:55 33.95019 -118.25752 2179 ft 197 kts 264°
2026-04-23 00:55 33.94853 -118.27366 1901 ft 192 kts 263°
2026-04-23 00:55 33.94693 -118.28934 1643 ft 185 kts 263°
2026-04-23 00:56 33.94587 -118.29962 1485 ft 174 kts 263°
2026-04-23 00:56 33.94444 -118.31366 1251 ft 165 kts 263°
2026-04-23 00:56 33.94306 -118.32715 1036 ft 160 kts 263°
2026-04-23 00:56 33.94181 -118.33935 870 ft 154 kts 263°
2026-04-23 00:57 33.94050 -118.35239 615 ft 151 kts 262°
2026-04-23 00:57 33.93916 -118.36501 427 ft 148 kts 262°
2026-04-23 00:57 33.93801 -118.37639 242 ft 146 kts 262°
2026-04-23 00:57 33.93681 -118.38852 136 ft 137 kts 262°
2026-04-23 00:58 33.93585 -118.39732 135 ft 67 kts 264°
2026-04-23 00:58 33.93561 -118.40080 135 ft 35 kts 273°
2026-04-23 00:58 33.93595 -118.40291 135 ft 21 kts 287°
2026-04-23 00:58 33.93617 -118.40459 134 ft 20 kts 263°
2026-04-23 00:59 33.93603 -118.40623 134 ft 19 kts 264°
2026-04-23 00:59 33.93590 -118.40779 134 ft 18 kts 264°
2026-04-23 00:59 33.93640 -118.40905 134 ft 17 kts 343°
2026-04-23 00:59 33.93744 -118.40919 134 ft 6 kts 10°
2026-04-23 01:00 33.93758 -118.40915 134 ft 0 kts 11°
2026-04-23 01:00 33.93759 -118.40915 134 ft 0 kts 11°
2026-04-23 01:00 33.93760 -118.40915 134 ft 0 kts 11°
2026-04-23 01:00 33.93762 -118.40914 134 ft 0 kts 11°
2026-04-23 01:01 33.93812 -118.40928 134 ft 14 kts 344°
2026-04-23 01:01 33.93872 -118.40866 134 ft 14 kts 78°
2026-04-23 01:01 33.93883 -118.40756 134 ft 13 kts 85°
2026-04-23 01:01 33.93892 -118.40651 134 ft 13 kts 81°
2026-04-23 01:02 33.93906 -118.40534 134 ft 15 kts 83°
2026-04-23 01:02 33.93918 -118.40417 134 ft 14 kts 83°
2026-04-23 01:02 33.93928 -118.40307 134 ft 13 kts 84°
2026-04-23 01:02 33.93935 -118.40236 134 ft 13 kts 83°
2026-04-23 01:03 33.93945 -118.40134 134 ft 12 kts 83°
2026-04-23 01:03 33.93955 -118.40035 134 ft 12 kts 82°
2026-04-23 01:03 33.93965 -118.39939 134 ft 13 kts 83°
2026-04-23 01:03 33.94002 -118.39837 134 ft 14 kts 11°
2026-04-23 01:04 33.94094 -118.39833 134 ft 13 kts 357°
2026-04-23 01:04 33.94166 -118.39843 134 ft 7 kts 353°
2026-04-23 01:04 33.94222 -118.39797 134 ft 2 kts 83°
2026-04-23 01:05 33.94222 -118.39793 134 ft 0 kts 82°
2026-04-23 01:05 33.94223 -118.39792 134 ft 0 kts 83°